Hourly Data Report for June 03, 2021

SANIRAJAK AIRPORT
NUNAVUT
Current Station Operator: NAVCAN

68°46'33.000" N
81°14'33.000" W
9.10 m
2402354
71293
YUX

Download Data

Hourly Data (June 2021)
Hourly Data Report for June 3, 2021
TIME
LST
Temp Definition
°C
Dew Point Definition
°C
Rel Hum Definition
%
Precip. Amount Definition
mm

Wind Dir Definition
10's deg

Wind Spd Definition
km/h
Visibility Definition
km
Stn Press Definition
kPa
Hmdx Definition


Wind Chill Definition


Weather Definition


00:00 -6.6 -8.0 90 0.0 34 30 16.1 100.19   -15 LegendNANA
01:00 -6.8 -8.2 90 0.0 34 30 16.1 100.19   -15 LegendNANA
02:00 -7.5 -8.7 91 0.0 34 30 16.1 100.21   -16 LegendNANA
03:00 -7.1 -8.2 92 0.0 34 32 16.1 100.20   -16 LegendNANA
04:00 -6.1 -7.3 91 0.0 35 32 16.1 100.19   -15 LegendNANA
05:00 -5.4 -6.8 90 0.0 35 35 16.1 100.20   -14 LegendNANA
06:00 -5.1 -6.6 89 0.0 36 37 16.1 100.20   -14 LegendNANA
07:00 -4.6 -6.3 88 0.0 36 37 16.1 100.20   -13 LegendNANA
08:00 -4.1 -5.8 88 0.0 36 37 16.1 100.22   -13 LegendNANA
09:00 -3.8 -5.5 88 0.0 36 34 16.1 100.24   -12 LegendNANA
10:00 -3.2 -5.1 87 0.0 36 35 16.1 100.24   -11 LegendNANA
11:00 -3.0 -4.7 88 0.0 36 35 12.9 100.24   -11 Snow
12:00 -2.4 -3.8 90 0.0 1 30 8.1 100.23   -10 Snow
13:00 -2.0 -3.4 90 0.0 1 32 14.5 100.25   -9 Snow
14:00 -1.2 -2.6 90 0.0 1 28 16.1 100.27   -8 Snow
15:00 -1.0 -2.3 91 0.0 1 30 16.1 100.30   -8 LegendNANA
16:00 -0.5 -1.8 91 0.0 1 24 16.1 100.31   -6 LegendNANA
17:00 -0.2 -1.2 93 0.0 1 22 16.1 100.35   -6 LegendNANA
18:00 -0.1 -1.0 94 0.0 2 24 16.1 100.36   -6 LegendNANA
19:00 -0.1 -0.8 95 0.0 2 22 16.1 100.40   -6 LegendNANA
20:00 -0.2 -0.8 96 0.0 2 18 16.1 100.41   -5 LegendNANA
21:00 -0.3 -1.0 95 0.0 1 17 16.1 100.42   -5 LegendNANA
22:00 -0.5 -1.2 95 0.0 36 15 16.1 100.42   -5 Snow
23:00 -0.7 -1.1 97 0.0 1 15 16.1 100.42   -5 Snow

Notes on Data Quality.

Legend

  • E = Estimated
  • M = Missing
  • NA = Not Available*
  • [empty] = Indicates an unobserved value
Date modified: